Regional Weather Roundup
Issued by NWS

Home | Current Version | Previous Version | Graphics & Text | Print | Product List | Glossary On
Versions: 1 2 3 4 5 6 7 8 9 10 11 12 13 14 15 16 17 18 19 20 21 22 23 24 25 26 27 28 29 30 31 32 33 34 35 36 37 38 39 40 41 42 43 44 45 46 47 48 49 50
000
ASUS43 KLMK 082102
RWRKY
KENTUCKY REGIONAL WEATHER ROUNDUP
NATIONAL WEATHER SERVICE LOUISVILLE KY
400 PM EST THU DEC 08 2016

NOTE "FAIR" INDICATES FEW OR NO CLOUDS BELOW 12,000 FEET
WITH NO SIGNIFICANT WEATHER AND/OR OBSTRUCTIONS TO VISIBILITY.

KYZ001>023-026-027-061>063-070>075-082200-
WESTERN AND SOUTH CENTRAL KENTUCKY

CITY           SKY/WX    TMP DP  RH WIND       PRES   REMARKS
PADUCAH        SUNNY     36  12  37 W12G17    30.46S WCI  28
HENDERSON      MOSUNNY   34  16  47 W13G18    30.45R WCI  25
OWENSBORO      MOSUNNY   33  17  51 W14       30.44R WCI  23
HOPKINSVILLE   MOSUNNY   34  13  42 NW9       30.42S WCI  26
BOWLING GREEN  SUNNY     35  14  42 W12       30.41S WCI  27
GLASGOW        NOT AVBL
$$

KYZ024-025-028>034-038-045-046-053-082200-
NORTH CENTRAL KENTUCKY

CITY           SKY/WX    TMP DP  RH WIND       PRES   REMARKS
LOUISVILLE/SDF NOT AVBL
LOUISVILLE/LOU SUNNY     35  14  42 NW16      30.37R WCI  25
FORT KNOX      NOT AVBL
$$

KYZ035>037-039>044-047>052-055>060-089>105-082200-
NORTHEAST KENTUCKY

CITY           SKY/WX    TMP DP  RH WIND       PRES   REMARKS
LEXINGTON      SUNNY     34  14  43 W12       30.32R WCI  25
COVINGTON      MOSUNNY   29  17  61 NW14      30.31R WCI  18
FRANKFORT      SUNNY     34  12  40 W10G20    30.32R WCI  26
$$

KYZ054-064>069-076>088-106>120-082200-
SOUTHEAST KENTUCKY

CITY           SKY/WX    TMP DP  RH WIND       PRES   REMARKS
JACKSON        SUNNY     34  16  47 W15G22    30.27R WCI  24
LONDON         SUNNY     36  18  48 W13       30.30R WCI  27
SOMERSET       NOT AVBL
MIDDLESBORO    NOT AVBL
MONTICELLO     CLEAR     36  19  50 W12       30.36R WCI  28
$$





USA.gov is the U.S. government's official web portal to all federal, state and local government web resources and services.